Location: Newark
(46.2167°N, 5.8664°E)
Time: 07:02:07
(UTC+00:00)

N. Korean satellite - Pass Details

Date: 23 October 2019
Orbit: 456 x 506 km, 97.2° (Epoch: 21 November)

Event Time Altitude Azimuth Distance (km) Brightness Sun altitude
Rises 05:04:13 0° 20° (NNE) 2,569 10.4 -11.0°
Reaches altitude 10° 05:06:25 10° 30° (NNE) 1,691 9.6 -10.6°
Maximum altitude 05:09:47 35° 97° (E) 823 8.5 -10.1°
Drops below altitude 10° 05:13:09 10° 164° (SSE) 1,700 9.6 -9.5°
Sets 05:15:22 0° 174° (S) 2,584 10.4 -9.1°
